Weather History for Myrtle Beach, SC

Change the Weather History Date:

Monday, April 22, 2013

  Actual Average Record
Temperature  
Mean Temperature 56 °F -  
Max Temperature 68 °F 70 °F 92 °F (2002)
Min Temperature 44 °F 53 °F 34 °F (1950)
Degree Days  
Heating Degree Days 9    
Growing Degree Days 6 (Base 50)    
Moisture  
Dew Point 42 °F    
Average Humidity 67    
Maximum Humidity 87    
Minimum Humidity 46    
Precipitation  
Precipitation 0.00 in - - ()
Sea Level Pressure  
Sea Level Pressure 30.26 in    
Wind  
Wind Speed 16 mph (NNE)    
Max Wind Speed 23 mph    
Max Gust Speed 25 mph    
Visibility 10 miles    
Events      
Averages and records for this station are not official NWS values.
T = Trace of Precipitation, MM = Missing Value Source: NWS Daily Summary

Daily Weather History Graph

Daily Weather History Graph

Search for Another Location

Airport:

Trip Planner

Search our weather history database for the weather conditions in past years. The results will help you decide how hot, cold, wet, or windy it might be!

Date:

Astronomy

Apr. 22, 2013 Rise Set
Actual Time 6:36 AM EDT 7:52 PM EDT
Civil Twilight 6:10 AM EDT 8:18 PM EDT
Nautical Twilight 5:39 AM EDT 8:49 PM EDT
Astronomical Twilight 5:07 AM EDT 9:21 PM EDT
Moon 4:47 PM EDT (4/22) 4:20 AM EDT (4/22)
Length of Visible Light 14h 07m
Length of Day
13h 15m
Waxing Gibbous, 87% of the Moon is Illuminated
Apr 22
Waxing Gibbous
Apr 25
Full
May 2
Last Quarter
May 9
New
May 18
First Quarter

Hourly Weather History & Observations

Time (EDT) Temp. Windchill Dew Point Humidity Pressure Visibility Wind Dir Wind Speed Gust Speed Precip Events Conditions
12:15 AM 51.8 °F - 39.2 °F 62% 30.36 in 10.0 mi NNE 13.8 mph 19.6 mph N/A   Clear
12:35 AM 51.8 °F - 37.4 °F 58% 30.36 in 10.0 mi NE 13.8 mph 21.9 mph N/A   Clear
12:55 AM 51.8 °F - 37.4 °F 58% 30.35 in 10.0 mi NNE 16.1 mph - N/A   Clear
1:15 AM 50.0 °F - 35.6 °F 58% 30.35 in 10.0 mi NNE 10.4 mph - N/A   Clear
1:35 AM 48.2 °F - 37.4 °F 66% 30.34 in 10.0 mi NNE 12.7 mph 18.4 mph N/A   Clear
1:55 AM 48.2 °F - 37.4 °F 66% 30.32 in 10.0 mi NNE 15.0 mph 19.6 mph N/A   Clear
2:15 AM 48.2 °F - 35.6 °F 62% 30.30 in 10.0 mi NNE 18.4 mph 23.0 mph N/A   Clear
2:35 AM 48.2 °F - 33.8 °F 58% 30.31 in 10.0 mi NNE 13.8 mph 21.9 mph N/A   Clear
2:55 AM 46.4 °F 39.8 °F 33.8 °F 62% 30.30 in 10.0 mi NNE 16.1 mph 21.9 mph N/A   Clear
3:15 AM 46.4 °F 40.1 °F 35.6 °F 66% 30.31 in 10.0 mi NNE 15.0 mph 24.2 mph N/A   Clear
3:35 AM 46.4 °F 39.8 °F 35.6 °F 66% 30.29 in 10.0 mi North 16.1 mph 23.0 mph N/A   Clear
3:55 AM 46.4 °F 40.7 °F 37.4 °F 71% 30.30 in 10.0 mi NNE 12.7 mph 20.7 mph N/A   Mostly Cloudy
4:15 AM 46.4 °F 40.4 °F 39.2 °F 76% 30.29 in 10.0 mi NNE 13.8 mph 20.7 mph N/A   Overcast
4:35 AM 46.4 °F 40.1 °F 39.2 °F 76% 30.28 in 10.0 mi North 15.0 mph 20.7 mph N/A   Mostly Cloudy
4:55 AM 46.4 °F 40.4 °F 39.2 °F 76% 30.28 in 10.0 mi NNE 13.8 mph - N/A   Partly Cloudy
5:15 AM 46.4 °F 40.1 °F 39.2 °F 76% 30.27 in 10.0 mi North 15.0 mph - N/A   Clear
5:35 AM 46.4 °F 40.7 °F 39.2 °F 76% 30.27 in 10.0 mi North 12.7 mph - N/A   Clear
5:55 AM 44.6 °F 36.9 °F 39.2 °F 81% 30.28 in 10.0 mi North 18.4 mph 23.0 mph N/A   Clear
6:50 AM 44.6 °F 35.9 °F 41.0 °F 87% 30.28 in 10.0 mi NNE 23.0 mph - N/A   Clear
7:45 AM 44.6 °F 35.9 °F 39.2 °F 81% 30.28 in 10.0 mi NNE 23.0 mph - N/A   Partly Cloudy
8:45 AM 46.4 °F 39.2 °F 41.0 °F 81% 30.29 in 10.0 mi North 18.4 mph - N/A   Partly Cloudy
9:45 AM 48.2 °F - 42.8 °F 82% 30.30 in 10.0 mi NNE 16.1 mph - N/A   Mostly Cloudy
10:55 AM 53.6 °F - 44.6 °F 72% 30.28 in 10.0 mi North 16.1 mph 19.6 mph N/A   Mostly Cloudy
11:45 AM 57.2 °F - 46.4 °F 67% 30.27 in 10.0 mi North 17.3 mph 23.0 mph N/A   Scattered Clouds
12:45 PM 62.6 °F - 48.2 °F 59% 30.25 in 10.0 mi NNE 17.3 mph - N/A   Clear
2:50 PM 66.2 °F - 48.2 °F 52% 30.20 in 10.0 mi North 17.3 mph 23.0 mph N/A   Clear
3:45 PM 66.2 °F - 48.2 °F 52% 30.16 in 10.0 mi North 18.4 mph 25.3 mph N/A   Clear
4:45 PM 68.0 °F - 46.4 °F 46% 30.16 in 10.0 mi North 19.6 mph 24.2 mph N/A   Clear
5:55 PM 66.2 °F - 48.2 °F 52% 30.15 in 10.0 mi North 18.4 mph 24.2 mph N/A   Mostly Cloudy
6:45 PM 64.4 °F - 48.2 °F 56% 30.16 in 10.0 mi NNE 19.6 mph 24.2 mph N/A   Mostly Cloudy
7:50 PM 60.8 °F - 46.4 °F 59% 30.17 in 10.0 mi NNE 16.1 mph - N/A   Scattered Clouds
8:45 PM 57.2 °F - 46.4 °F 67% 30.19 in 10.0 mi NNE 16.1 mph - N/A   Mostly Cloudy
9:55 PM 57.2 °F - 48.2 °F 72% 30.19 in 10.0 mi NNE 17.3 mph - N/A   Mostly Cloudy
10:55 PM 57.2 °F - 48.2 °F 72% 30.20 in 10.0 mi North 17.3 mph 20.7 mph N/A   Overcast
11:15 PM 55.4 °F - 46.4 °F 72% 30.19 in 10.0 mi North 18.4 mph - N/A   Overcast
11:35 PM 55.4 °F - 46.4 °F 72% 30.20 in 10.0 mi NNE 18.4 mph - N/A   Overcast
11:55 PM 55.4 °F - 48.2 °F 77% 30.19 in 10.0 mi North 15.0 mph 20.7 mph N/A   Overcast